www.pogodaiklimat.ru

Погода и климат >> Архив погоды >> Мексика >> Culiacan


ПОГОДА в Culiacan

  • Прогноз погоды в Culiacan
  • Монитор погоды в Culiacan
  • Климат города

АРХИВ ПОГОДЫ в Culiacan

Время (UTC), дата Ветер
(напр.,м/с)
 
Видим.   Явления Облачность Т
(С)
Тd
(С)
f
(%)
Тe
(С)
Тes
(С)
Комфортность P
(гПа)
Po
(гПа)
Тmin
(С)
Tmax
(С)
R
(мм)
R24
(мм)
S
(см)
00 18.05 ЮЗ 2 16 км ясно +29.0 +17.1 49 +33 +37 очень
душно
1011.0 1006.6 +16.6 +30.6
03 18.05 ЮЗ 2 16 км ясно +29.0 +17.1 49 +33 +33 очень
душно
1011.0 1006.6 +16.6 +30.6
06 18.05 З 1 16 км ясно +23.4 +16.7 66 +28 +28 душно 1012.1 1007.7
09 18.05 В 1 16 км ясно +18.6 +16.1 85 +21 +21 комфорт 1012.9 1008.4
12 18.05 В 1 16 км 5/0 1500 м
[Ac und]
+18.0 +16.0 88 +19 +19 1012.4 1007.9 +17.7 +29.0
15 18.05 С 1 16 км ясно +24.4 +17.5 65 +28 +36 душно 1013.5 1009.0
00 19.05 З 1 16 км ясно +28.8 +17.8 51 +33 +37 очень
душно
1009.4 1005.0 +20.4 +30.8
03 19.05 З 1 16 км ясно +23.6 +17.4 68 +27 +27 жарко 1010.4 1006.0
06 19.05 ЮВ 1 16 км ясно +21.0 +17.4 80 +26 +26 душно 1011.4 1007.0 +20.8 +30.8
15 19.05 ЮЗ 1 16 км ясно +24.6 +17.7 65 +29 +36 душно 1012.8 1008.3
18 19.05 ЮЗ 1 16 км ясно +28.0 +16.9 51 +32 +56 опасность
солнечного
удара
1012.9 1008.4 +17.4 +28.8
21 19.05 ЮЗ 1 16 км ясно +29.8 +18.4 50 +35 +56 опасность
солнечного
удара
1010.6 1006.2
00 20.05 З 1 16 км ясно +28.2 +18.2 55 +33 +37 очень
душно
1009.4 1005.0 +17.4 +30.8
21 20.05 Ю 2 16 км ясно +33.2 +19.9 46 +39 +58 опасность
солнечного
удара
1009.5 1005.1
00 21.05 Ю 2 16 км ясно +31.0 +17.5 44 +35 +38 очень
душно
1008.8 1004.4 +16.7 +33.8
06 21.05 Ю 1 16 км ясно +21.0 +18.6 86 +27 +27 душно 1012.2 1007.6 +20.8 +33.7
15 21.05 З 1 16 км ясно +24.6 +20.4 77 +30 +38 очень
душно
1014.9 1010.3
21 21.05 ЮЗ 2 16 км ясно +31.2 +17.7 45 +35 +54 опасность
солнечного
удара
1012.4 1007.9
00 22.05 З 2 16 км ясно +30.8 +18.6 48 +36 +39 очень
душно
1010.9 1006.5 +18.5 +32.5
03 22.05 З 1 16 км ясно +25.0 +17.5 63 +29 +29 душно 1012.1 1007.7
06 22.05 ЮВ 1 16 км ясно +21.2 +17.1 77 +25 +25 комфорт 1013.1 1008.7 +21.0 +32.5
09 22.05 В 1 16 км ясно +19.2 +17.1 88 +22 +22 комфорт 1012.2 1007.8
12 22.05 ЮВ 1 16 км ясно +18.4 +17.9 97 +20 +20 1012.8 1008.3 +18.2 +31.2
15 22.05 В 1 16 км 8/0 150 м
[Ac und]
+23.4 +21.3 88 +31 +35 очень
душно
1014.9 1010.3
18 22.05 Ю 1 16 км ясно +30.6 +20.5 55 +38 +62 опасность
солнечного
удара
1014.6 1010.1 +18.2 +30.8
21 22.05 ЮЗ 1 16 км ясно +31.8 +18.8 46 +37 +58 опасность
солнечного
удара
1013.2 1008.8
00 23.05 ЮЗ 1 16 км ясно +31.0 +16.4 41 +34 +38 душно 1012.1 1007.7 +18.2 +32.6
03 23.05 ЮЗ 1 16 км ясно +25.6 +17.2 60 +30 +30 душно 1012.9 1008.5
06 23.05 штиль 0 16 км ясно +22.2 +17.4 74 +27 +27 душно 1013.4 1009.0 +21.8 +32.6
12 23.05 С 1 16 км ясно +18.2 +15.5 84 +20 +20 1012.1 1007.8 +18.0 +31.4
15 23.05 З 1 16 км ясно +27.6 +20.6 66 +34 +42 очень
душно
1013.8 1009.4
18 23.05 ЮЗ 1 16 км ясно +32.4 +18.8 45 +38 +62 опасность
солнечного
удара
1013.4 1008.8 +17.5 +32.6
21 23.05 ЮЗ 1 16 км ясно +33.8 +17.8 39 +38 +59 опасность
солнечного
удара
1012.0 1007.5
00 24.05 З 1 16 км ясно +32.6 +17.6 41 +37 +41 очень
душно
1010.8 1006.4 +18.2 +33.9
03 24.05 Ю 1 16 км ясно +26.0 +19.8 69 +32 +32 очень
душно
1011.8 1007.4
06 24.05 З 1 16 км ясно +23.8 +19.9 79 +29 +29 душно 1012.4 1008.0 +23.5 +33.9
12 24.05 штиль 0 16 км ясно +19.9 +16.5 81 +22 +22 комфорт 1011.2 1006.8 +19.8 +32.2
18 24.05 Ю 2 16 км ясно +31.8 +21.8 55 +40 +61 опасность
солнечного
удара
1011.9 1007.5 +19.8 +32.1

 

Местоположение метеостанции Culiacan (Мексика): широта 24.80 долгота -107.40 высота над уровнем моря 39 м.

В архиве по умолчанию представлена погода в Culiacan за последнюю неделю. Архивные данные за месяц целиком и за предыдущие месяцы, начиная с января 2011 года, Вы можете получить, выбрав интересующий диапазон дат из раскрывающегося списка и нажав кнопку "Ввод!".

Внимание! Время в таблицах - всемирное. Для получения местного времени необходимо прибавить поправку, которая в Culiacan равна -7 ч.

Смотрите также архив погоды в соседних городах и на ближайших метеорологических станциях:

Погода в Tepehuanes (Мексика) (180 км)
Погода в Colonia Juan Carras-Co (Мексика) (205 км)
Погода в Choix (Мексика) (229 км)
Погода в Durango (Мексика) (296 км)
Погода в Hidalgo del Parral (Мексика) (298 км)
Погода в La Paz (Мексика) (302 км)
Погода в Ciudad Obregon (Мексика) (377 км)
Погода в Sombrerete (Мексика) (407 км)
Погода в Torreon (Мексика) (411 км)
Погода в Loreto (Мексика) (415 км)

Пояснения к столбцам:

Ветер - указаны скорость ветра в м/с - средняя за 10 мин, порывы в срок и между сроками (в фигурных скобках) и направление, откуда дует ветер: С - северный, СВ - северо-восточный, В - восточный, ЮВ - юго-восточный, Ю - южный, ЮЗ - юго-западный, З - западный, СЗ - северо-западный.
Видимость - горизонтальная дальность видимости в метрах или километрах. При видимости от 1 до 10 км при отсутствии осадков обычно наблюдается дымка, при ухудшении видимости до 1 км и менее - туман. В сухую погоду видимость может ухудшаться дымом, пылью или мглою.
Явления - указаны атмосферные явления, наблюдавшиеся в срок или в последний час перед сроком; фигурными скобками обозначены явления, наблюдавшиеся между сроками (за 1-3 часа до срока); квадратными скобками обозначены град или гололедные отложения с указанием их диаметра в мм.
Облачность - указаны через наклонную черту общая и нижняя облачность в баллах и высота нижней границы облаков в метрах; квадратными скобками обозначены формы облаков: Ci - перистые, Cs - перисто-слоистые, Cc - перисто-кучевые, Ac - высококучевые, As - высокослоистые, Sc - слоисто-кучевые, Ns - слоисто-дождевые, Cu - кучевые, Cb - кучево-дождевые. Подробнее классификацию облаков см. в Атласе облаков (PDF).
T - Температура воздуха - температура, измеренная на высоте 2 м над землей.
Td - Температура точки росы - температура, при понижении до которой содержащийся в воздухе водяной пар достигнет насыщения.
f - Относительная влажность воздуха - влажноcть воздуха, измеренная на высоте 2 м над землей.
Te - Эффективная температура - температура, которую ощущает одетый по сезону человек в тени. Характеристика душности погоды. При расчете учитывается влияние влажности воздуха и скорости ветра на теплоощущения человека.
Tes - Эффективная температура на солнце - температура, которую ощущает человек, с поправкой на солнечный нагрев. Характеристика знойности погоды. Зависит от высоты солнца над горизонтом, облачности и скорости ветра. Ночью, в пасмурную погоду, а также при ветре 12 м/с и более поправка равна нулю.
P - Атмосферное давление - приведенное к уровню моря атмосферное давление.
Po - Атмосферное давление - измеренное на уровне метеостанции атмосферное давление.
Tmin - Минимальная температура - минимум температуры воздуха на высоте 2 м над землей.
Tmax - Максимальная температура - максимум температуры воздуха на высоте 2 м над землей.
R - Количество осадков - Количество выпавших осадков за период времени, мм. При наведении курсора мыши на число - период времени, за который выпало указанное количество осадков.
R24 - Количество осадков - Количество выпавших осадков за 24 часа, мм.
S - Снежный покров - Высота снежного покрова, см. При наведении курсора мыши на число - состояние снежного покрова и степень покрытия местности в баллах.